EW6756 Weather Reports


Display with metric or nautical units.
time (UTC)temp
F
wind
direction
speed
MPH
gust
MPH
rain 1hr
in
rain 24hr
in
rain mn
in
humidity
%
barometer
mb
20260503055003 56 43 1.0 3.0 0.00 0.00 0.00 88 1011.7
20260503054503 56 42 1.0 4.0 0.00 0.00 0.00 88 1011.8
20260503054003 56 39 1.0 4.0 0.00 0.00 0.00 90 1011.7
20260503053717 56 39 1.0 4.0 0.00 0.00 0.00 90 1011.9
20260503053218 55 39 0.0 1.0 0.00 0.00 0.00 90 1011.8
20260503052503 54 0 0.0 0.0 0.00 0.00 0.00 92 1011.8
20260503052218 54 0 0.0 0.0 0.00 0.00 0.00 92 1011.6
20260503051503 53 0 0.0 0.0 0.00 0.00 0.00 93 1012.2
20260503051003 53 0 0.0 0.0 0.00 0.00 0.00 93 1012.0
20260503050503 52 0 0.0 0.0 0.00 0.00 0.00 94 1012.0
20260503050218 52 0 0.0 0.0 0.00 0.00 0.00 94 1012.1
20260503045503 52 0 0.0 0.0 0.00 0.00 0.00 94 1012.1
20260503045003 51 40 0.0 1.0 0.00 0.00 0.00 94 1012.0
20260503044503 51 44 0.0 3.0 0.00 0.00 0.00 93 1012.1
20260503044003 50 44 0.0 3.0 0.00 0.00 0.00 93 1011.8
20260503043504 50 322 0.0 5.0 0.00 0.00 0.00 93 1011.8
20260503043004 50 322 0.0 5.0 0.00 0.00 0.00 94 1011.7
20260503042503 50 0 0.0 0.0 0.00 0.00 0.00 93 1011.9
20260503042003 49 27 0.0 1.0 0.00 0.00 0.00 93 1011.8
20260503041503 49 36 1.0 3.0 0.00 0.00 0.00 93 1011.9
20260503041003 48 39 1.0 3.0 0.00 0.00 0.00 91 1011.5
20260503040503 48 43 0.0 3.0 0.00 0.00 0.00 90 1011.4
20260503040004 49 0 0.0 0.0 0.00 0.00 0.00 91 1011.7
20260503035716 49 27 0.0 1.0 0.00 0.00 0.00 91 1012.0
20260503035217 49 27 1.0 3.0 0.00 0.00 0.00 91 1012.0
20260503034503 49 27 1.0 3.0 0.00 0.00 0.00 91 1011.7
20260503034003 49 0 0.0 0.0 0.00 0.00 0.00 91 1011.8
20260503033503 49 0 0.0 0.0 0.00 0.00 0.00 91 1011.8
20260503033003 48 6 0.0 1.0 0.00 0.00 0.00 91 1011.9
20260503032718 48 6 0.0 1.0 0.00 0.00 0.00 91 1011.7
20260503032003 48 0 0.0 0.0 0.00 0.00 0.00 90 1011.6
20260503031503 48 0 0.0 0.0 0.00 0.00 0.00 90 1011.7
20260503031003 48 0 0.0 0.0 0.00 0.00 0.00 90 1011.8
20260503030503 48 0 0.0 0.0 0.00 0.00 0.00 90 1012.0
20260503030217 48 0 0.0 0.0 0.00 0.00 0.00 89 1012.2
20260503025503 48 0 0.0 0.0 0.00 0.00 0.00 88 1012.1
20260503025003 49 0 0.0 0.0 0.00 0.00 0.00 88 1012.1
20260503024503 49 0 0.0 0.0 0.00 0.00 0.00 88 1012.1
20260503024217 49 0 0.0 0.0 0.00 0.00 0.00 87 1012.1
20260503023503 50 0 0.0 0.0 0.00 0.00 0.00 88 1012.2
20260503023003 50 0 0.0 0.0 0.00 0.00 0.00 89 1012.2
20260503022503 50 0 0.0 0.0 0.00 0.00 0.00 89 1012.3
20260503022003 50 0 0.0 0.0 0.00 0.00 0.00 89 1012.3
20260503021503 51 0 0.0 0.0 0.00 0.00 0.00 88 1012.3
20260503021003 51 0 0.0 0.0 0.00 0.00 0.00 88 1012.2
20260503020718 51 0 0.0 0.0 0.00 0.00 0.00 88 1012.3
20260503020003 51 0 0.0 0.0 0.00 0.00 0.00 88 1012.3
20260503015503 51 0 0.0 0.0 0.00 0.00 0.00 87 1012.4
20260503015003 51 0 0.0 0.0 0.00 0.00 0.00 88 1012.4
20260503014503 52 0 0.0 0.0 0.00 0.00 0.00 87 1012.3
20260503014003 52 0 0.0 0.0 0.00 0.00 0.00 88 1012.4
20260503013503 52 3 0.0 1.0 0.00 0.00 0.00 88 1012.5
20260503013003 52 3 0.0 1.0 0.00 0.00 0.00 88 1012.5
20260503012503 52 3 0.0 1.0 0.00 0.00 0.00 88 1012.6
20260503012003 52 3 0.0 1.0 0.00 0.00 0.00 88 1012.8
20260503011503 52 358 0.0 3.0 0.00 0.00 0.00 88 1012.8
20260503011216 52 358 0.0 3.0 0.00 0.00 0.00 88 1012.9
20260503010503 52 0 0.0 0.0 0.00 0.00 0.00 87 1013.1
20260503010218 52 0 0.0 0.0 0.00 0.00 0.00 87 1013.0
20260503005503 53 0 0.0 0.0 0.00 0.00 0.00 86 1013.2
20260503005003 53 0 0.0 0.0 0.00 0.00 0.00 86 1013.2
20260503004503 53 0 0.0 0.0 0.00 0.00 0.00 87 1013.5
20260503004003 54 0 0.0 0.0 0.00 0.00 0.00 87 1013.2
20260503003503 54 0 0.0 0.0 0.00 0.00 0.00 87 1013.6
20260503003003 54 216 0.0 3.0 0.00 0.00 0.00 87 1013.8
20260503002503 54 232 0.0 3.0 0.00 0.00 0.00 88 1013.7
20260503002218 54 215 0.0 3.0 0.00 0.00 0.00 88 1014.0
20260503001503 53 202 1.0 5.0 0.00 0.00 0.00 88 1014.1
20260503001003 53 244 2.0 8.0 0.00 0.00 0.00 88 1014.3
20260503000503 53 241 2.0 8.0 0.00 0.00 0.00 88 1014.4
20260503000003 53 207 2.0 7.0 0.00 0.00 0.00 87 1014.6
20260502235503 53 0 0.0 0.0 0.00 0.00 0.00 86 1014.0
20260502235003 52 0 0.0 0.0 0.00 0.00 0.00 86 1013.8
20260502234503 52 0 0.0 0.0 0.00 0.00 0.00 85 1014.0
20260502234003 52 0 0.0 0.0 0.00 0.00 0.00 85 1013.9
20260502233503 52 0 0.0 0.0 0.00 0.00 0.00 85 1013.7
20260502233003 52 0 0.0 0.0 0.00 0.00 0.00 84 1014.0
20260502232503 52 0 0.0 0.0 0.00 0.00 0.00 85 1013.9
20260502232003 53 0 0.0 0.0 0.00 0.00 0.00 85 1013.9
20260502231503 53 0 0.0 0.0 0.00 0.00 0.00 85 1013.8
20260502231003 53 0 0.0 0.0 0.00 0.00 0.00 85 1013.8
20260502230503 52 0 0.0 0.0 0.00 0.00 0.00 84 1014.1
20260502230003 53 0 0.0 0.0 0.00 0.00 0.00 84 1013.9
20260502225503 53 0 0.0 0.0 0.00 0.00 0.00 84 1013.8
20260502225003 53 0 0.0 0.0 0.00 0.00 0.00 84 1013.9
20260502224503 53 0 0.0 0.0 0.00 0.00 0.00 84 1014.0
20260502224003 53 0 0.0 0.0 0.00 0.00 0.00 83 1013.9
20260502223503 53 0 0.0 0.0 0.00 0.00 0.00 83 1014.1
20260502223003 53 0 0.0 0.0 0.00 0.00 0.00 83 1014.0
20260502222503 53 0 0.0 0.0 0.00 0.00 0.00 82 1014.0
20260502222003 53 0 0.0 0.0 0.00 0.00 0.00 82 1013.9
20260502221718 53 0 0.0 0.0 0.00 0.00 0.00 83 1013.8
20260502221003 53 0 0.0 0.0 0.00 0.00 0.00 82 1013.9
20260502220718 53 0 0.0 0.0 0.00 0.00 0.00 82 1013.8
20260502220003 53 0 0.0 0.0 0.00 0.00 0.00 82 1013.9
20260502215503 53 0 0.0 0.0 0.00 0.00 0.00 81 1013.8
20260502215003 53 0 0.0 0.0 0.00 0.00 0.00 81 1014.0
20260502214503 54 0 0.0 0.0 0.00 0.00 0.00 81 1013.9
20260502214003 54 0 0.0 0.0 0.00 0.00 0.00 81 1014.0
20260502213503 55 0 0.0 0.0 0.00 0.00 0.00 80 1014.1
20260502213003 55 0 0.0 0.0 0.00 0.00 0.00 80 1014.2
20260502212503 55 0 0.0 0.0 0.00 0.00 0.00 80 1014.1
20260502212217 55 0 0.0 0.0 0.00 0.00 0.00 79 1014.2
20260502211503 56 0 0.0 0.0 0.00 0.00 0.00 79 1014.3
20260502211003 56 0 0.0 0.0 0.00 0.00 0.00 79 1014.1
20260502210503 56 0 0.0 0.0 0.00 0.00 0.00 78 1014.4
20260502210003 56 0 0.0 0.0 0.00 0.00 0.00 78 1014.3
20260502205503 56 0 0.0 0.0 0.00 0.00 0.00 78 1014.3
20260502205003 57 0 0.0 0.0 0.00 0.00 0.00 78 1014.4
20260502204503 57 0 0.0 0.0 0.00 0.00 0.00 77 1014.5
20260502204217 57 0 0.0 0.0 0.00 0.00 0.00 77 1014.4
20260502203503 58 0 0.0 0.0 0.00 0.00 0.00 77 1014.5
20260502203003 58 0 0.0 0.0 0.00 0.00 0.00 77 1014.4
20260502202503 58 0 0.0 0.0 0.00 0.00 0.00 77 1014.5
20260502202216 58 0 0.0 0.0 0.00 0.00 0.00 77 1014.4
20260502201717 58 0 0.0 0.0 0.00 0.00 0.00 77 1014.5
20260502201003 58 0 0.0 0.0 0.00 0.00 0.00 76 1014.4
20260502200503 58 0 0.0 0.0 0.00 0.00 0.00 74 1014.6
20260502200003 58 0 0.0 0.0 0.00 0.00 0.00 74 1014.6
20260502195503 58 0 0.0 0.0 0.00 0.00 0.00 74 1014.6
20260502195216 58 0 0.0 0.0 0.00 0.00 0.00 74 1014.5
20260502194717 58 0 0.0 0.0 0.00 0.00 0.00 74 1014.6
20260502194003 58 0 0.0 0.0 0.00 0.00 0.00 73 1014.5
20260502193503 59 0 0.0 0.0 0.00 0.00 0.00 72 1014.5
20260502193218 59 0 0.0 0.0 0.00 0.00 0.00 72 1014.6
20260502192503 60 0 0.0 0.0 0.00 0.00 0.00 70 1014.2
20260502192003 60 0 0.0 0.0 0.00 0.00 0.00 70 1014.3
20260502191503 61 0 0.0 0.0 0.00 0.00 0.00 69 1014.3
20260502191218 61 0 0.0 0.0 0.00 0.00 0.00 68 1014.3
20260502190717 62 0 0.0 0.0 0.00 0.00 0.00 68 1014.1
20260502190003 62 0 0.0 0.0 0.00 0.00 0.00 67 1014.2
20260502185503 62 0 0.0 0.0 0.00 0.00 0.00 67 1014.5
20260502185003 63 0 0.0 0.0 0.00 0.00 0.00 66 1014.2
20260502184503 63 0 0.0 1.0 0.00 0.00 0.00 65 1014.4
20260502184003 63 192 0.0 1.0 0.00 0.00 0.00 64 1014.4
20260502183503 64 197 0.0 1.0 0.00 0.00 0.00 63 1014.3
20260502183003 64 206 0.0 1.0 0.00 0.00 0.00 62 1014.4
20260502182503 64 0 0.0 0.0 0.00 0.00 0.00 60 1014.3
20260502182003 65 0 0.0 0.0 0.00 0.00 0.00 59 1014.3
20260502181503 65 265 0.0 3.0 0.00 0.00 0.00 58 1014.4
20260502181218 65 265 0.0 3.0 0.00 0.00 0.00 57 1014.3
20260502180503 65 0 0.0 0.0 0.00 0.00 0.00 55 1014.3
20260502170503 69 169 0.0 4.0 0.00 0.00 0.00 48 1014.2
20260502164217 71 177 1.0 5.0 0.00 0.00 0.00 45 1014.0
20260502163503 72 215 1.0 4.0 0.00 0.00 0.00 42 1013.9
20260502163005 73 212 0.0 3.0 0.00 0.00 0.00 40 1014.1
20260502162503 73 226 1.0 3.0 0.00 0.00 0.00 40 1014.0
20260502162003 73 267 1.0 3.0 0.00 0.00 0.00 38 1014.0
20260502161503 73 152 1.0 7.0 0.00 0.00 0.00 38 1013.8
20260502161217 73 186 1.0 7.0 0.00 0.00 0.00 39 1013.8
20260502160503 73 201 0.0 7.0 0.00 0.00 0.00 40 1014.1
20260502151503 72 235 2.0 10.0 0.00 0.00 0.00 41 1014.1
20260502151003 72 223 2.0 10.0 0.00 0.00 0.00 40 1014.2
20260502150503 73 237 1.0 7.0 0.00 0.00 0.00 41 1014.3
20260502130503 75 234 5.0 12.0 0.00 0.00 0.00 35 1015.5
20260502123503 75 239 4.0 14.0 0.00 0.00 0.00 38 1015.7
20260502123003 75 223 4.0 14.0 0.00 0.00 0.00 37 1015.8
20260502122503 75 230 4.0 12.0 0.00 0.00 0.00 39 1015.7
20260502122003 75 249 3.0 10.0 0.00 0.00 0.00 38 1015.9
20260502121717 75 248 3.0 10.0 0.00 0.00 0.00 38 1015.9
20260502121003 75 226 4.0 10.0 0.00 0.00 0.00 38 1016.2
20260502120716 75 204 4.0 11.0 0.00 0.00 0.00 37 1016.1
20260502115716 74 212 4.0 14.0 0.00 0.00 0.00 37 1016.4
20260502115003 74 227 4.0 14.0 0.00 0.00 0.00 38 1016.3
20260502114503 74 237 3.0 8.0 0.00 0.00 0.00 40 1016.2
20260502114003 74 244 3.0 11.0 0.00 0.00 0.00 39 1016.3
20260502113503 74 221 4.0 12.0 0.00 0.00 0.00 39 1016.5
20260502113003 74 198 4.0 14.0 0.00 0.00 0.00 40 1016.6
20260502112718 73 213 4.0 19.0 0.00 0.00 0.00 41 1016.5
20260502112003 73 244 4.0 19.0 0.00 0.00 0.00 40 1016.8
20260502111503 73 232 3.0 10.0 0.00 0.00 0.00 41 1016.7
20260502111003 73 228 3.0 11.0 0.00 0.00 0.00 42 1016.7
20260502110503 72 225 3.0 11.0 0.00 0.00 0.00 42 1016.7
20260502110003 72 226 4.0 8.0 0.00 0.00 0.00 43 1017.0
20260502105718 72 209 3.0 8.0 0.00 0.00 0.00 43 1016.7
20260502105003 72 222 3.0 14.0 0.00 0.00 0.00 43 1016.9
20260502104503 72 235 3.0 14.0 0.00 0.00 0.00 44 1017.0
20260502104003 71 225 4.0 14.0 0.00 0.00 0.00 44 1017.0
20260502103718 71 198 3.0 11.0 0.00 0.00 0.00 44 1017.0
20260502103003 71 193 4.0 10.0 0.00 0.00 0.00 45 1017.1
20260502102718 71 221 4.0 10.0 0.00 0.00 0.00 46 1017.0
20260502102217 71 219 3.0 8.0 0.00 0.00 0.00 46 1017.1
20260502101718 70 186 3.0 8.0 0.00 0.00 0.00 48 1017.0
20260502101003 70 225 3.0 8.0 0.00 0.00 0.00 48 1017.4
20260502100503 70 238 3.0 8.0 0.00 0.00 0.00 48 1017.5
20260502091003 67 211 2.0 8.0 0.00 0.00 0.00 54 1017.9
20260502090503 67 200 3.0 12.0 0.00 0.00 0.00 54 1018.2
20260502071503 61 213 3.0 8.0 0.00 0.00 0.00 61 1018.7
20260502071003 61 215 3.0 8.0 0.00 0.00 0.00 61 1018.7
20260502070503 60 205 4.0 8.0 0.00 0.00 0.00 61 1018.8
20260502070003 60 197 3.0 8.0 0.00 0.00 0.00 61 1018.8
20260502065503 60 199 3.0 11.0 0.00 0.00 0.00 62 1018.7
20260502065003 60 202 2.0 11.0 0.00 0.00 0.00 62 1018.7
20260502064503 60 217 2.0 8.0 0.00 0.00 0.00 62 1019.0
20260502064003 59 232 2.0 8.0 0.00 0.00 0.00 62 1018.9
20260502063503 59 222 2.0 8.0 0.00 0.00 0.00 63 1019.1
20260502063217 59 196 2.0 7.0 0.00 0.00 0.00 63 1019.1
20260502062503 58 186 2.0 8.0 0.00 0.00 0.00 64 1018.9
20260502062217 58 191 2.0 8.0 0.00 0.00 0.00 64 1019.0